This demonstration page uses our WeatherBlox Daily Observations layout. Learn more.

Hourly Observations for June 4, 2018

Temp ( °F °C ) Dew Point ( °F °C ) Humidity (%) Winds ( mph kmh ) Pressure ( in mb ) Visibility ( mi km ) Precip ( " mm )
12:15 am 00:15 Clear 63 17 50 10.2 64 64 ESE 8 13 30.03 1017 10 16.09344 0 0
12:35 am 00:35 Clear 63 17.3 50 10.1 63 63 ESE 9 15 30.03 1017 10 16.09344 0 0
12:55 am 00:55 Clear 64 17.7 50 9.8 60 60 ESE 9 15 30 1016 10 16.09344 0 0
1:15 am 01:15 Clear 64 18 49 9.6 58 58 SE 9 15 30.03 1017 10 16.09344 0 0
1:35 am 01:35 Clear 65 18.1 49 9.7 58 58 SE 8 13 30.03 1017 10 16.09344 0 0
1:55 am 01:55 Clear 65 18.6 49 9.5 56 56 SE 8 13 30.03 1017 10 16.09344 0 0
2:15 am 02:15 Clear 66 18.8 49 9.5 55 55 SE 9 15 30.03 1017 10 16.09344 0 0
2:35 am 02:35 Partly Cloudy 65 18.6 50 10 58 58 SSE 9 15 30.03 1017 10 16.09344 0 0
2:55 am 02:55 Mostly Cloudy 65 18.3 50 10.1 59 59 SE 9 15 30.03 1017 10 16.09344 0 0
3:15 am 03:15 Partly Cloudy 64 18 50 10.2 61 61 SSE 7 11 30.03 1017 10 16.09344 0 0
3:35 am 03:35 Mostly Cloudy 65 18.1 51 10.3 61 61 SSE 8 13 30.03 1017 10 16.09344 0 0
3:55 am 03:55 Partly Cloudy 65 18.6 50 10 58 58 SSE 10 17 30.03 1017 10 16.09344 0 0
4:15 am 04:15 Clear 65 18.5 50 10.1 58 58 SSE 12 19 30.03 1017 10 16.09344 0 0
4:35 am 04:35 Mostly Cloudy 65 18.2 50 10.2 60 60 SSE 12 19 30.03 1017 10 16.09344 0 0
4:55 am 04:55 Cloudy 65 18.3 51 10.5 61 61 S 10 17 30.03 1017 10 16.09344 0 0
5:15 am 05:15 Cloudy 65 18.1 51 10.7 62 62 S 14 22 30.03 1017 10 16.09344 0 0
5:35 am 05:35 Cloudy with Light Drizzle 64 18 53 11.5 66 66 S 14 22 30.03 1017 10 16.09344 0 0
5:55 am 05:55 Cloudy with Light Rain 63 17.2 55 12.6 75 75 SSW 20 31 30.03 1017 10 16.09344 0 0
6:15 am 06:15 Cloudy with Light Rain 63 17 56 13.1 78 78 S 14 22 30 1016 10 16.09344 0 0
6:35 am 06:35 Cloudy 63 17.3 56 13.1 77 77 S 14 22 30 1016 10 16.09344 0 0
6:55 am 06:55 Cloudy 63 17.4 55 13 76 76 S 14 22 30 1016 10 16.09344 0 0
7:15 am 07:15 Cloudy with Light Rain 63 17.2 55 13 76 76 S 14 22 30.03 1017 10 16.09344 0 0
7:35 am 07:35 Cloudy with Light Rain 62 16.9 56 13.6 81 81 S 12 19 30.03 1017 10 16.09344 0 0
7:55 am 07:55 Cloudy with Rain 62 16.5 57 14 85 85 S 10 17 30.06 1018 10 16.09344 0.03 0.762
8:15 am 08:15 Cloudy with Rain 61 16.2 58 14.7 91 91 S 9 15 30.06 1018 7 11.265408 0.04 1.016
8:35 am 08:35 Cloudy with Rain 62 16.5 59 14.9 90 90 S 6 9 30.06 1018 10 16.09344 0.09 2.286
8:55 am 08:55 Cloudy with Light Rain 62 16.5 59 14.9 90 90 SSE 6 9 30.06 1018 7 11.265408 0.12 3.048
9:15 am 09:15 Cloudy with Light Rain 62 16.7 59 14.8 89 89 SE 3 6 30.06 1018 10 16.09344 0.01 0.254
9:35 am 09:35 Cloudy with Light Rain 63 17 59 15.1 89 89 SE 6 9 30 1016 10 16.09344 0.01 0.254
9:55 am 09:55 Cloudy 64 17.5 59 15 85 85 SE 8 13 30 1016 10 16.09344 0.01 0.254
10:15 am 10:15 Cloudy 65 18.2 59 14.9 81 81 SE 7 11 30 1016 10 16.09344 0 0
10:35 am 10:35 Mostly Cloudy 66 18.8 59 15.2 80 80 SE 9 15 30 1016 10 16.09344 0 0
10:55 am 10:55 Mostly Cloudy 66 19 60 15.3 79 79 SSE 10 17 30 1016 10 16.09344 0 0
11:15 am 11:15 Cloudy 67 19.6 58 14.5 73 73 SSE 10 17 30 1016 10 16.09344 0 0
11:35 am 11:35 Cloudy 67 19.5 59 14.8 74 74 SSE 12 19 29.97 1015 10 16.09344 0 0
11:55 am 11:55 Cloudy with Light Rain 67 19.3 61 15.9 81 81 SSE 10 17 29.97 1015 10 16.09344 0 0
12:15 pm 12:15 Cloudy 67 19.7 61 16.1 80 80 SSE 14 22 29.97 1015 10 16.09344 0 0
12:35 pm 12:35 Cloudy 69 20.7 61 16.2 76 76 SSE 14 22 29.94 1014 10 16.09344 0 0
12:55 pm 12:55 Mostly Cloudy 72 22 63 17.1 74 74 SSE 16 26 29.91 1013 10 16.09344 0 0
1:15 pm 13:15 Mostly Cloudy 76 24.2 63 17.4 66 66 SSE 18 30 29.88 1012 10 16.09344 0 0
1:35 pm 13:35 Partly Cloudy 78 25.6 58 14.6 51 51 S 18 30 29.85 1011 10 16.09344 0 0
1:55 pm 13:55 Partly Cloudy 79 25.9 58 14.4 49 49 S 16 26 29.85 1011 10 16.09344 0 0
2:15 pm 14:15 Partly Cloudy 80 26.6 59 14.8 48 48 S 17 28 29.83 1010 10 16.09344 0 0
2:35 pm 14:35 Sunny 80 26.5 58 14.5 48 48 S 22 35 29.8 1009 10 16.09344 0 0
2:55 pm 14:55 Sunny 81 27.1 58 14.4 46 46 S 18 30 29.8 1009 10 16.09344 0 0
3:15 pm 15:15 Sunny 81 27.1 57 14 45 45 S 20 31 29.8 1009 10 16.09344 0 0
3:35 pm 15:35 Sunny 82 28 55 12.8 39 39 SSW 17 28 29.8 1009 10 16.09344 0 0
3:55 pm 15:55 Sunny 83 28.1 55 12.6 38 38 SSW 17 28 29.8 1009 10 16.09344 0 0
4:15 pm 16:15 Sunny 83 28.5 55 12.8 38 38 S 16 26 29.77 1008 10 16.09344 0 0
4:35 pm 16:35 Sunny 83 28.5 54 12.1 36 36 S 17 28 29.77 1008 10 16.09344 0 0
4:55 pm 16:55 Sunny 83 28.3 53 11.8 36 36 S 17 28 29.77 1008 10 16.09344 0 0
5:15 pm 17:15 Sunny 83 28.4 54 12.3 37 37 S 17 28 29.77 1008 10 16.09344 0 0
5:35 pm 17:35 Sunny 83 28.4 54 12.3 37 37 S 20 31 29.77 1008 10 16.09344 0 0
5:55 pm 17:55 Sunny 83 28.2 54 12 37 37 S 15 24 29.77 1008 10 16.09344 0 0
6:15 pm 18:15 Sunny 82 28 54 12 37 37 S 18 30 29.77 1008 10 16.09344 0 0
6:35 pm 18:35 Sunny 82 27.7 53 11.8 37 37 S 17 28 29.77 1008 10 16.09344 0 0
6:55 pm 18:55 Sunny 81 27.2 53 11.6 38 38 SSE 16 26 29.74 1007 10 16.09344 0 0
7:15 pm 19:15 Sunny 80 26.9 52 11.3 38 38 S 18 30 29.77 1008 10 16.09344 0 0
7:35 pm 19:35 Sunny 80 26.5 52 11.3 39 39 SSE 17 28 29.77 1008 10 16.09344 0 0
7:55 pm 19:55 Sunny 78 25.8 51 10.6 39 39 SSE 15 24 29.8 1009 10 16.09344 0 0
8:15 pm 20:15 Sunny 77 25 51 10.8 41 41 SSE 10 17 29.8 1009 10 16.09344 0 0
8:35 pm 20:35 Sunny 75 23.8 52 11.1 45 45 SSE 10 17 29.8 1009 10 16.09344 0 0
8:55 pm 20:55 Sunny 73 22.6 53 11.4 49 49 SSE 9 15 29.8 1009 10 16.09344 0 0
9:15 pm 21:15 Clear 71 21.5 53 11.5 53 53 SSE 8 13 29.83 1010 10 16.09344 0 0
9:35 pm 21:35 Clear 69 20.5 53 11.7 57 57 SSE 8 13 29.83 1010 10 16.09344 0 0
9:55 pm 21:55 Clear 68 20 53 11.7 59 59 SSE 8 13 29.83 1010 10 16.09344 0 0
10:15 pm 22:15 Clear 68 19.9 53 11.6 59 59 SSE 8 13 29.83 1010 10 16.09344 0 0
10:35 pm 22:35 Clear 67 19.3 53 11.9 62 62 SSE 10 17 29.83 1010 10 16.09344 0 0
10:55 pm 22:55 Clear 67 19.5 54 12 62 62 SSE 12 19 29.83 1010 10 16.09344 0 0
11:15 pm 23:15 Clear 67 19.5 54 12 62 62 SSE 12 19 29.83 1010 10 16.09344 0 0
11:35 pm 23:35 Clear 66 19 54 12 64 64 SSE 12 19 29.83 1010 10 16.09344 0 0
11:55 pm 23:55 Clear 65 18.6 54 12 66 66 SSE 9 15 29.83 1010 10 16.09344 0 0

Powered by AerisWeather